Home > Weather > Mumbai > Past weeks

Flag for India Past Weather in Mumbai, Maharashtra, India — Yesterday and Last 2 Weeks

Now
81 °F

Light rain. More clouds than sun.


Feels Like: 88 °F
Forecast: 82 / 85 °F
Wind: 9 mph from Southwest

Location: Mumbai / Santacruz

Current Time: Jun 25, 2016 at 5:53:03 PM

Latest Report: Jun 25, 2016 at 5:00 PM


Visibility: 1 mi

Pressure: 29.65 "Hg

Humidity: 94%

Dew Point: 79 °F

Location of MumbaiLocation

Past Weather in Mumbai — Graph

°F

Mumbai Temperature Yesterday

Maximum temperature yesterday: 86 °F (at 1:00 PM)
Minimum temperature yesterday: 79 °F (at 1:00 AM)
Average temperature yesterday: 81 °F

High & Low Weather Summary for the Past Weeks

 TemperatureHumidityPressure
High95 °F (Jun 13, 2:30 PM)100% (Jun 21, 4:00 AM)29.80 "Hg (Jun 21, 4:00 AM)
Low77 °F (Jun 19, 8:30 PM)59% (Jun 13, 1:00 PM)29.53 "Hg (Jun 20, 4:30 PM)
Average86 °F79%29.67 "Hg
* Reported Jun 10 4:30 PM — Jun 25 4:30 PM, Mumbai, Weather by CustomWeather, © 2016

Note: Actual official high and low records may vary slightly from our data, if they occured in-between our weather recording intervals... More about our weather records

Advertising

Mumbai Weather History for the Previous 24 Hours

Scroll right to see more
 ConditionsComfort  
Time TempWeatherWind HumidityBarometerVisibility
4:30 PM
Sat, Jun 25
81 °FRain. More clouds than sun.9 mph89%29.65 "Hg1 mi
4:00 PM81 °FDrizzle. More clouds than sun.8 mph94%29.65 "Hg1 mi
3:30 PM81 °FLight rain. More clouds than sun.8 mph94%29.65 "Hg1 mi
3:00 PM79 °FLight rain. More clouds than sun.14 mph94%29.68 "Hg1 mi
2:30 PM81 °FLight rain. More clouds than sun.12 mph94%29.68 "Hg1 mi
2:00 PM79 °FRain. More clouds than sun.12 mph94%29.68 "Hg1 mi
1:30 PM79 °FRain. More clouds than sun.14 mph94%29.68 "Hg1 mi
1:00 PM81 °FRain. More clouds than sun.12 mph89%29.68 "Hg1 mi
12:30 PM79 °FHeavy rain. More clouds than sun.12 mph94%29.68 "Hg1 mi
11:30 AM81 °FLight rain. More clouds than sun.9 mph89%29.68 "Hg1 mi
11:00 AM81 °FLight rain. More clouds than sun.8 mph94%29.68 "Hg1 mi
9:30 AM81 °FMore clouds than sun.8 mph89%29.68 "Hg1 mi
9:00 AM82 °FBroken clouds.8 mph84%29.68 "Hg1 mi
8:30 AM82 °FBroken clouds.8 mph84%29.68 "Hg1 mi
8:00 AM82 °FScattered showers. Broken clouds.10 mph84%29.68 "Hg1 mi
7:30 AM81 °FScattered showers. Broken clouds.12 mph89%29.68 "Hg1 mi
7:00 AM81 °FBroken clouds.10 mph89%29.68 "Hg1 mi
6:30 AM81 °FDrizzle. Mostly cloudy.10 mph89%29.65 "Hg1 mi
6:00 AM81 °FDrizzle. Mostly cloudy.13 mph89%29.62 "Hg1 mi
5:30 AM79 °FDrizzle. Mostly cloudy.7 mph94%29.62 "Hg1 mi
5:00 AM79 °FHeavy rain. Mostly cloudy.7 mph94%29.62 "Hg1 mi
4:30 AM79 °FDrizzle. Mostly cloudy.8 mph94%29.62 "Hg1 mi
4:00 AM79 °FLight rain. Mostly cloudy.8 mph94%29.62 "Hg1 mi
3:30 AM79 °FThunderstorms. Mostly cloudy.9 mph100%29.62 "Hg1 mi
3:00 AM79 °FThunderstorms. Mostly cloudy.5 mph94%29.62 "Hg1 mi
2:30 AM77 °FThunderstorms. Mostly cloudy.3 mph100%29.65 "Hg1 mi
2:00 AM77 °FThunderstorms. Mostly cloudy.3 mph100%29.65 "Hg1 mi
1:30 AM79 °FThunderstorms. Mostly cloudy.5 mph94%29.68 "Hg1 mi
12:30 AM79 °FThunderstorms. Mostly cloudy.8 mph94%29.68 "Hg1 mi
11:30 PM
Fri, Jun 24
79 °FThunderstorms. Mostly cloudy.7 mph94%29.68 "Hg1 mi
11:00 PM79 °FThunderstorms. Mostly cloudy.12 mph94%29.68 "Hg1 mi
10:30 PM79 °FThunderstorms. Mostly cloudy.14 mph94%29.68 "Hg1 mi
10:00 PM79 °FRain. Mostly cloudy.8 mph94%29.68 "Hg1 mi
8:30 PM81 °FLight rain. Mostly cloudy.5 mph94%29.62 "Hg1 mi
8:00 PM81 °FRain showers. Mostly cloudy.9 mph94%29.62 "Hg1 mi
7:30 PM81 °FThunderstorms. More clouds than sun.9 mph94%29.62 "Hg1 mi
7:00 PM81 °FThunderstorms. More clouds than sun.5 mph94%29.62 "Hg1 mi
6:30 PM79 °FThunderstorms. More clouds than sun.3 mph94%29.59 "Hg1 mi
6:00 PM81 °FThunderstorms. More clouds than sun.15 mph94%29.59 "Hg1 mi
5:30 PM81 °FThunderstorms. More clouds than sun.8 mph94%29.59 "Hg1 mi
Weather by CustomWeather, © 2016

See weather overviewHow to use our weather pages